[TLELIST] Archives

 

[TLELIST] Current TLEs

May 7th 2024 PST

HST 1 20580U 90037B 24128.08098645 .00007198 00000-0 34363-3 0 9998 2 20580 28.4684 260.4235 0002014 320.4242 39.6203 15.17125405671047 ISS (ZARYA) 1 25544U 98067A 24128.36829091 .00016537 00000-0 28705-3 0 9992 2 25544 51.6388 157.7777 0003617 143.3446 338.7927 15.50977738452211 CXO 1 25867U 99040B 24128.19632862 .00000638 00000-0 00000+0 0 9990 2 25867 40.2552 157.8199 8932055 293.5091 0.0392 0.37812619 25568 ...Continue Reading

[TLELIST] Current TLEs

May 6th 2024 PST

HST 1 20580U 90037B 24126.83110402 .00006251 00000-0 29735-3 0 9991 2 20580 28.4684 268.7897 0001997 303.4036 56.6365 15.17108773670599 ISS (ZARYA) 1 25544U 98067A 24127.20033841 .00016348 00000-0 28427-3 0 9995 2 25544 51.6386 163.5747 0003554 138.0407 298.5821 15.50938879452038 CXO 1 25867U 99040B 24128.19632862 .00000638 00000-0 00000+0 0 9990 2 25867 40.2552 157.8199 8932055 293.5091 0.0392 0.37812619 25568 ...Continue Reading

[TLELIST] Current TLEs

May 5th 2024 PST

HST 1 20580U 90037B 24125.77856187 .00006144 00000-0 29222-3 0 9992 2 20580 28.4686 275.8356 0001991 289.4637 70.5740 15.17097440670695 ISS (ZARYA) 1 25544U 98067A 24126.38175926 .00014285 00000-0 24961-3 0 9991 2 25544 51.6391 167.6337 0003679 139.6845 43.5286 15.50919423451907 CXO 1 25867U 99040B 24128.19632862 .00000638 00000-0 00000+0 0 9990 2 25867 40.2552 157.8199 8932055 293.5091 0.0392 0.37812619 25568 ...Continue Reading

[TLELIST] Current TLEs

May 4th 2024 PST

HST 1 20580U 90037B 24124.72601271 .00006167 00000-0 29342-3 0 9996 2 20580 28.4686 282.8812 0001962 277.7405 82.2964 15.17084748670270 ISS (ZARYA) 1 25544U 98067A 24125.41464120 .00014744 00000-0 25759-3 0 9997 2 25544 51.6384 172.4305 0003503 135.2416 44.7378 15.50894915451756 CXO 1 25867U 99040B 24125.55221082 .00000817 00000-0 00000+0 0 9994 2 25867 40.1781 158.1648 8930883 293.2519 0.0839 0.37810193 25553 ...Continue Reading

[TLELIST] Current TLEs

May 3rd 2024 PST

HST 1 20580U 90037B 24123.60766960 .00006050 00000-0 28782-3 0 9997 2 20580 28.4683 290.3662 0001948 262.5705 97.4666 15.17070933670103 ISS (ZARYA) 1 25544U 98067A 24124.37025281 .00022572 00000-0 39038-3 0 9995 2 25544 51.6372 177.6144 0003919 133.4619 331.6621 15.50851710451594 CXO 1 25867U 99040B 24125.55221082 .00000817 00000-0 00000+0 0 9994 2 25867 40.1781 158.1648 8930883 293.2519 0.0839 0.37810193 25553 ...Continue Reading

[TLELIST] Current TLEs

May 2nd 2024 PST

HST 1 20580U 90037B 24122.81824494 .00006044 00000-0 28760-3 0 9995 2 20580 28.4685 295.6503 0001980 252.4983 107.5393 15.17061793669987 ISS (ZARYA) 1 25544U 98067A 24123.33747558 .00013317 00000-0 23406-3 0 9997 2 25544 51.6389 182.7356 0003746 132.2542 323.0307 15.50819236451430 CXO 1 25867U 99040B 24125.55221082 .00000817 00000-0 00000+0 0 9994 2 25867 40.1781 158.1648 8930883 293.2519 0.0839 0.37810193 25553 ...Continue Reading

[TLELIST] Current TLEs

May 1st 2024 PST

HST 1 20580U 90037B 24122.16038722 .00006986 00000-0 33391-3 0 9995 2 20580 28.4685 300.0533 0001957 245.4969 114.5419 15.17056512670141 ISS (ZARYA) 1 25544U 98067A 24122.43841905 .00013534 00000-0 23796-3 0 9991 2 25544 51.6389 187.1965 0003719 130.1892 342.4288 15.50794930451290 CXO 1 25867U 99040B 24122.90844459 .00000974 00000-0 00000-0 0 9994 2 25867 40.1204 158.4290 8930870 293.0739 0.0973 0.37809658 14390 ...Continue Reading

[TLELIST] Current TLEs

April 30th 2024 PST

HST 1 20580U 90037B 24120.91044929 .00006015 00000-0 28636-3 0 9991 2 20580 28.4688 308.4188 0001987 227.6249 132.4175 15.17039859669958 ISS (ZARYA) 1 25544U 98067A 24121.34418611 .00020521 00000-0 35672-3 0 9994 2 25544 51.6389 192.6226 0003613 123.7838 355.9101 15.50773661451125 CXO 1 25867U 99040B 24122.90844459 .00000974 00000-0 00000-0 0 9994 2 25867 40.1204 158.4290 8930870 293.0739 0.0973 0.37809658 14390 ...Continue Reading

[TLELIST] Current TLEs

April 30th 2024 PST

HST 1 20580U 90037B 24120.91044929 .00006015 00000-0 28636-3 0 9991 2 20580 28.4688 308.4188 0001987 227.6249 132.4175 15.17039859669958 ISS (ZARYA) 1 25544U 98067A 24121.34418611 .00020521 00000-0 35672-3 0 9994 2 25544 51.6389 192.6226 0003613 123.7838 355.9101 15.50773661451125 CXO 1 25867U 99040B 24122.90844459 .00000974 00000-0 00000-0 0 9994 2 25867 40.1204 158.4290 8930870 293.0739 0.0973 0.37809658 14390 ...Continue Reading

[TLELIST] Current TLEs

April 30th 2024 PST

HST 1 20580U 90037B 24120.91044929 .00006015 00000-0 28636-3 0 9991 2 20580 28.4688 308.4188 0001987 227.6249 132.4175 15.17039859669958 ISS (ZARYA) 1 25544U 98067A 24121.34418611 .00020521 00000-0 35672-3 0 9994 2 25544 51.6389 192.6226 0003613 123.7838 355.9101 15.50773661451125 CXO 1 25867U 99040B 24122.90844459 .00000974 00000-0 00000-0 0 9994 2 25867 40.1204 158.4290 8930870 293.0739 0.0973 0.37809658 14390 ...Continue Reading
  • This mailing list is a public mailing list - anyone may join or leave, at any time.
  • This mailing list is announce-only.

International Space Station (ISS) / Hubble Space Telescope (HST) / Chandra X-Ray Observatory Orbital Data via EMAIL

Privacy Policy:

Private list